This is the latest recevied weather packets stored in our database for station/object KMWT. If no packets are shown the sender has not sent any weather packets the latest 1 day(s).
| Time | Temp. | Humidity | Pressure | Rain* | Wind** | Luminosity | Snow |
|---|---|---|---|---|---|---|---|
| 1836274584 | 18.89° C | 88% | 1016.6 hPa | - | 0 m/s | - | - |
| 1836274435 | 18.89° C | 88% | 1016.6 hPa | - | 0 m/s | - | - |
| 1836273983 | 18.89° C | 88% | 1016.6 hPa | - | 0 m/s | - | - |
| 1778047419 | 17.78° C | 93% | 1007.1 hPa | - | 0 m/s | - | - |
| 1778046816 | 18.89° C | 88% | 1007.1 hPa | - | 0 m/s | - | - |
| 1778046220 | 18.89° C | 88% | 1007.1 hPa | - | 0 m/s | - | - |
| 1778045613 | 20.56° C | 88% | 1006.4 hPa | - | 0 m/s | - | - |
| 1778045015 | 20.56° C | 88% | 1006.4 hPa | - | 0 m/s | - | - |
| 1778044414 | 20.56° C | 88% | 1006.4 hPa | - | 0 m/s | - | - |
| 1778043817 | 20.56° C | 88% | 1006.4 hPa | - | 0 m/s | - | - |
| 1778043214 | 20° C | 100% | 1006.1 hPa | - | 0 m/s | - | - |
| 1778042616 | 20° C | 100% | 1006.1 hPa | - | 0 m/s | - | - |
| 1778042015 | 20° C | 100% | 1006.1 hPa | - | 0 m/s | - | - |
| 1778041416 | 20° C | 100% | 1006.1 hPa | - | 0 m/s | - | - |
| 1778040817 | 20° C | 100% | 1006.1 hPa | - | 0 m/s | - | - |
| 1778040335 | 20° C | 100% | 1006.1 hPa | - | 0 m/s | - | - |
| 1778039613 | 20.56° C | 94% | 1005.1 hPa | - | 0 m/s | - | - |
| 1778039020 | 20.56° C | 94% | 1005.1 hPa | - | 0 m/s | - | - |
| 1778038419 | 20.56° C | 94% | 1005.1 hPa | - | 0 m/s | - | - |
| 1778037818 | 20.56° C | 94% | 1005.1 hPa | - | 0 m/s | - | - |
| 1778037214 | 20.56° C | 94% | 1005.1 hPa | - | 0 m/s | - | - |
| 1778036613 | 20.56° C | 94% | 1005.1 hPa | - | 0 m/s | - | - |
| 1778036014 | 21.67° C | 94% | 1004.7 hPa | - | 0 m/s | - | - |
| 1778035414 | 21.67° C | 94% | 1004.7 hPa | - | 0 m/s | - | - |
| 1778034813 | 21.67° C | 94% | 1004.7 hPa | - | 0 m/s | - | - |
* Rain since midnight (hover to see other rain measurements)
** Current wind speed in m/s (hover to see current wind gust speed)